Change the Weather History Date:

Saturday, March 2, 2013

  Actual Average (KGVT) Record (KGVT)
Temperature  
Mean Temperature 41 °F -  
Max Temperature 50 °F 59 °F 77 °F (2006)
Min Temperature 32 °F 44 °F 21 °F (2014)
Degree Days  
Heating Degree Days 24    
Moisture  
Dew Point 23 °F    
Average Humidity 55    
Maximum Humidity 75    
Minimum Humidity 30    
Precipitation  
Precipitation 0.00 in - - ()
Sea Level Pressure  
Sea Level Pressure 30.34 in    
Wind  
Wind Speed 11 mph (NNW)    
Max Wind Speed 21 mph    
Max Gust Speed 29 mph    
Visibility 10 miles    
Events      
Averages and records for this station are not official NWS values.
T = Trace of Precipitation, MM = Missing Value Source: NWS Daily Summary

Daily Weather History Graph

Daily Weather History Graph

Search for Another Location

Airport or City:

Trip Planner

Search our weather history database for the weather conditions in past years. The results will help you decide how hot, cold, wet, or windy it might be!

Date:

Astronomy

Mar. 02, 2013 Rise Set
Actual Time 6:49 AM CST 6:20 PM CST
Civil Twilight 6:24 AM CST 6:45 PM CST
Nautical Twilight 5:55 AM CST 7:14 PM CST
Astronomical Twilight 5:26 AM CST 7:42 PM CST
Moon 11:41 PM CST (3/2) 9:36 AM CST (3/2)
Length of Visible Light 12h 21m
Length of Day
11h 31m
Waning Gibbous, 74% of the Moon is Illuminated
Mar 2
Waning Gibbous
Mar 4
Last Quarter
Mar 11
New
Mar 19
First Quarter
Mar 27
Full

Hourly Weather History & Observations

Time (CST) Temp. Windchill Dew Point Humidity Pressure Visibility Wind Dir Wind Speed Gust Speed Precip Events Conditions
12:35 AM 35.6 °F 28.6 °F 26.6 °F 70% 30.31 in 10.0 mi North 9.2 mph - N/A   Clear
12:55 AM 35.6 °F 29.2 °F 28.4 °F 75% 30.31 in 10.0 mi North 8.1 mph - N/A   Scattered Clouds
1:15 AM 35.6 °F 28.0 °F 28.4 °F 75% 30.31 in 10.0 mi North 10.4 mph - N/A   Scattered Clouds
1:35 AM 35.6 °F 29.2 °F 28.4 °F 75% 30.32 in 10.0 mi North 8.1 mph - N/A   Mostly Cloudy
1:55 AM 35.6 °F 29.2 °F 28.4 °F 75% 30.32 in 10.0 mi North 8.1 mph - N/A   Mostly Cloudy
2:15 AM 35.6 °F 29.2 °F 26.6 °F 70% 30.32 in 10.0 mi North 8.1 mph - N/A   Scattered Clouds
2:35 AM 33.8 °F 25.8 °F 26.6 °F 75% 30.32 in 10.0 mi North 10.4 mph - N/A   Scattered Clouds
2:55 AM 35.6 °F 29.9 °F 28.4 °F 75% 30.32 in 10.0 mi NNW 6.9 mph - N/A   Mostly Cloudy
3:15 AM 35.6 °F 27.1 °F 26.6 °F 70% 30.32 in 10.0 mi North 12.7 mph - N/A   Overcast
3:35 AM 35.6 °F 27.5 °F 26.6 °F 70% 30.32 in 10.0 mi North 11.5 mph - N/A   Overcast
3:55 AM 33.8 °F 23.9 °F 26.6 °F 75% 30.32 in 10.0 mi North 15.0 mph - N/A   Overcast
4:15 AM 33.8 °F 22.2 °F 23.0 °F 65% 30.33 in 10.0 mi North 20.7 mph 28.8 mph N/A   Overcast
4:35 AM 33.8 °F 23.5 °F 23.0 °F 65% 30.33 in 10.0 mi North 16.1 mph - N/A   Overcast
4:55 AM 32.0 °F 20.5 °F 21.2 °F 64% 30.34 in 10.0 mi North 18.4 mph - N/A   Scattered Clouds
5:15 AM 32.0 °F 22.1 °F 19.4 °F 60% 30.34 in 10.0 mi North 13.8 mph - N/A   Mostly Cloudy
5:35 AM 32.0 °F 21.6 °F 19.4 °F 60% 30.35 in 10.0 mi North 15.0 mph 18.4 mph N/A   Overcast
5:55 AM 32.0 °F 22.5 °F 19.4 °F 60% 30.35 in 10.0 mi North 12.7 mph - N/A   Mostly Cloudy
6:15 AM 32.0 °F 22.1 °F 19.4 °F 60% 30.36 in 10.0 mi North 13.8 mph 19.6 mph N/A   Scattered Clouds
6:35 AM 32.0 °F 22.1 °F 19.4 °F 60% 30.37 in 10.0 mi North 13.8 mph - N/A   Clear
6:55 AM 32.0 °F 22.1 °F 19.4 °F 60% 30.39 in 10.0 mi North 13.8 mph - N/A   Clear
7:15 AM 32.0 °F 22.5 °F 19.4 °F 60% 30.39 in 10.0 mi NNW 12.7 mph - N/A   Clear
7:35 AM 32.0 °F 22.1 °F 21.2 °F 64% 30.40 in 10.0 mi NNW 13.8 mph - N/A   Clear
7:55 AM 32.0 °F 22.5 °F 21.2 °F 64% 30.41 in 10.0 mi NNW 12.7 mph - N/A   Clear
8:15 AM 32.0 °F 22.5 °F 21.2 °F 64% 30.42 in 10.0 mi NNW 12.7 mph - N/A   Clear
8:35 AM 33.8 °F 23.9 °F 21.2 °F 60% 30.43 in 10.0 mi NNW 15.0 mph 21.9 mph N/A   Clear
8:55 AM 33.8 °F 23.2 °F 21.2 °F 60% 30.43 in 10.0 mi NNW 17.3 mph 20.7 mph N/A   Clear
9:15 AM 33.8 °F 24.8 °F 21.2 °F 60% 30.42 in 10.0 mi North 12.7 mph 18.4 mph N/A   Clear
9:35 AM 35.6 °F 27.1 °F 21.2 °F 56% 30.43 in 10.0 mi North 12.7 mph - N/A   Clear
9:55 AM 35.6 °F 26.2 °F 21.2 °F 56% 30.43 in 10.0 mi North 15.0 mph - N/A   Scattered Clouds
10:15 AM 35.6 °F 26.2 °F 21.2 °F 56% 30.43 in 10.0 mi North 15.0 mph - N/A   Scattered Clouds
10:35 AM 37.4 °F 28.9 °F 23.0 °F 56% 30.42 in 10.0 mi NNW 13.8 mph 18.4 mph N/A   Clear
10:55 AM 37.4 °F 29.8 °F 21.2 °F 52% 30.42 in 10.0 mi NNW 11.5 mph 16.1 mph N/A   Clear
11:15 AM 39.2 °F 30.5 °F 21.2 °F 49% 30.42 in 10.0 mi NNW 16.1 mph 24.2 mph N/A   Clear
11:35 AM 39.2 °F 31.2 °F 21.2 °F 49% 30.41 in 10.0 mi NNW 13.8 mph 20.7 mph N/A   Clear
11:55 AM 41.0 °F 32.8 °F 21.2 °F 45% 30.39 in 10.0 mi NNW 16.1 mph 21.9 mph N/A   Clear
12:35 PM 42.8 °F 35.8 °F 21.2 °F 42% 30.38 in 10.0 mi NNW 13.8 mph 19.6 mph N/A   Clear
12:55 PM 42.8 °F 36.2 °F 21.2 °F 42% 30.37 in 10.0 mi NNW 12.7 mph 19.6 mph N/A   Clear
1:15 PM 44.6 °F 38.8 °F 21.2 °F 39% 30.35 in 10.0 mi NW 11.5 mph - N/A   Clear
1:35 PM 44.6 °F 38.1 °F 21.2 °F 39% 30.34 in 10.0 mi NW 13.8 mph 19.6 mph N/A   Clear
1:55 PM 46.4 °F 39.2 °F 21.2 °F 37% 30.33 in 10.0 mi NW 18.4 mph 23.0 mph N/A   Clear
2:15 PM 46.4 °F 40.1 °F 21.2 °F 37% 30.32 in 10.0 mi NW 15.0 mph 23.0 mph N/A   Clear
2:35 PM 46.4 °F 40.7 °F 21.2 °F 37% 30.32 in 10.0 mi NNW 12.7 mph - N/A   Clear
2:55 PM 48.2 °F - 21.2 °F 34% 30.31 in 10.0 mi NNW 17.3 mph 23.0 mph N/A   Clear
3:15 PM 50.0 °F - 23.0 °F 35% 30.31 in 10.0 mi NNW 12.7 mph - N/A   Clear
3:35 PM 50.0 °F - 21.2 °F 32% 30.31 in 10.0 mi NW 12.7 mph - N/A   Clear
3:55 PM 50.0 °F - 19.4 °F 30% 30.30 in 10.0 mi NNW 12.7 mph - N/A   Clear
4:15 PM 50.0 °F - 21.2 °F 32% 30.30 in 10.0 mi NNW 10.4 mph - N/A   Clear
4:35 PM 50.0 °F - 21.2 °F 32% 30.30 in 10.0 mi NNW 11.5 mph - N/A   Clear
4:55 PM 50.0 °F - 21.2 °F 32% 30.29 in 10.0 mi NNW 11.5 mph - N/A   Clear
5:15 PM 50.0 °F - 21.2 °F 32% 30.29 in 10.0 mi NNW 12.7 mph - N/A   Clear
5:35 PM 50.0 °F - 21.2 °F 32% 30.29 in 10.0 mi NNW 11.5 mph - N/A   Clear
5:55 PM 48.2 °F - 21.2 °F 34% 30.29 in 10.0 mi NNW 10.4 mph - N/A   Clear
6:15 PM 46.4 °F 42.4 °F 23.0 °F 40% 30.30 in 10.0 mi North 8.1 mph - N/A   Clear
6:35 PM 44.6 °F 41.4 °F 23.0 °F 43% 30.30 in 10.0 mi North 5.8 mph - N/A   Clear
6:55 PM 44.6 °F 42.2 °F 23.0 °F 43% 30.30 in 10.0 mi North 4.6 mph - N/A   Clear
7:15 PM 44.6 °F - 23.0 °F 43% 30.30 in 10.0 mi Calm Calm - N/A   Clear
7:35 PM 42.8 °F - 23.0 °F 46% 30.30 in 10.0 mi Calm Calm - N/A   Clear
7:55 PM 44.6 °F - 21.2 °F 39% 30.30 in 10.0 mi Calm Calm - N/A   Clear
8:15 PM 41.0 °F - 24.8 °F 53% 30.30 in 10.0 mi Calm Calm - N/A   Clear
8:35 PM 42.8 °F - 23.0 °F 46% 30.29 in 10.0 mi Calm Calm - N/A   Clear
8:55 PM 37.4 °F 33.8 °F 26.6 °F 65% 30.30 in 10.0 mi SW 4.6 mph - N/A   Clear
9:15 PM 37.4 °F 32.8 °F 23.0 °F 56% 30.31 in 10.0 mi WSW 5.8 mph - N/A   Clear
9:35 PM 37.4 °F 34.9 °F 24.8 °F 60% 30.31 in 10.0 mi WSW 3.5 mph - N/A   Clear
9:55 PM 37.4 °F - 23.0 °F 56% 30.30 in 10.0 mi Calm Calm - N/A   Clear
10:15 PM 35.6 °F - 26.6 °F 70% 30.30 in 10.0 mi Calm Calm - N/A   Clear
10:35 PM 35.6 °F - 26.6 °F 70% 30.29 in 10.0 mi Calm Calm - N/A   Clear
10:55 PM 35.6 °F - 26.6 °F 70% 30.29 in 10.0 mi Calm Calm - N/A   Clear
11:15 PM 35.6 °F - 26.6 °F 70% 30.29 in 10.0 mi Calm Calm - N/A   Clear
11:35 PM 33.8 °F - 26.6 °F 75% 30.28 in 10.0 mi Calm Calm - N/A   Clear
11:55 PM 33.8 °F 28.6 °F 26.6 °F 75% 30.28 in 10.0 mi WSW 5.8 mph - N/A   Clear